﻿測定場所 (Monitoring sites),日付 (Measurement date),時間 (Measurement time),線量率 最大値 (max) μGy/h,線量率 最小値 (min) μGy/h,線量率 平均値 (average) μGy/h,
足立 (Adachi),2012-12-02,23:01～24:00,0.0641,0.0548,0.0603,
足立 (Adachi),2012-12-02,22:01～23:00,0.0679,0.0595,0.0628,
足立 (Adachi),2012-12-02,21:01～22:00,0.0656,0.0582,0.0627,
足立 (Adachi),2012-12-02,20:01～21:00,0.0663,0.0601,0.0631,
足立 (Adachi),2012-12-02,19:01～20:00,0.0635,0.0529,0.0595,
足立 (Adachi),2012-12-02,18:01～19:00,0.0595,0.0521,0.0561,
足立 (Adachi),2012-12-02,17:01～18:00,0.0587,0.0515,0.0562,
足立 (Adachi),2012-12-02,16:01～17:00,0.0600,0.0527,0.0561,
足立 (Adachi),2012-12-02,15:01～16:00,0.0584,0.0538,0.0561,
足立 (Adachi),2012-12-02,14:01～15:00,0.0578,0.0524,0.0555,
足立 (Adachi),2012-12-02,13:01～14:00,0.0599,0.0538,0.0565,
足立 (Adachi),2012-12-02,12:01～13:00,0.0603,0.0534,0.0565,
足立 (Adachi),2012-12-02,11:01～12:00,0.0589,0.0523,0.0560,
足立 (Adachi),2012-12-02,10:01～11:00,0.0591,0.0525,0.0561,
足立 (Adachi),2012-12-02,09:01～10:00,0.0599,0.0537,0.0561,
足立 (Adachi),2012-12-02,08:01～09:00,0.0596,0.0529,0.0558,
足立 (Adachi),2012-12-02,07:01～08:00,0.0590,0.0526,0.0556,
足立 (Adachi),2012-12-02,06:01～07:00,0.0584,0.0520,0.0556,
足立 (Adachi),2012-12-02,05:01～06:00,0.0596,0.0520,0.0554,
足立 (Adachi),2012-12-02,04:01～05:00,0.0584,0.0519,0.0555,
足立 (Adachi),2012-12-02,03:01～04:00,0.0582,0.0525,0.0555,
足立 (Adachi),2012-12-02,02:01～03:00,0.0588,0.0531,0.0559,
足立 (Adachi),2012-12-02,01:01～02:00,0.0595,0.0536,0.0560,
足立 (Adachi),2012-12-02,00:01～01:00,0.0617,0.0529,0.0559,
足立 (Adachi),2012-12-01,23:01～24:00,0.0588,0.0531,0.0560,
足立 (Adachi),2012-12-01,22:01～23:00,0.0604,0.0537,0.0566,
足立 (Adachi),2012-12-01,21:01～22:00,0.0596,0.0539,0.0565,
足立 (Adachi),2012-12-01,20:01～21:00,0.0597,0.0529,0.0563,
足立 (Adachi),2012-12-01,19:01～20:00,0.0589,0.0527,0.0560,
足立 (Adachi),2012-12-01,18:01～19:00,0.0593,0.0529,0.0563,
足立 (Adachi),2012-12-01,17:01～18:00,0.0599,0.0524,0.0561,
足立 (Adachi),2012-12-01,16:01～17:00,0.0608,0.0531,0.0567,
足立 (Adachi),2012-12-01,15:01～16:00,0.0592,0.0538,0.0568,
足立 (Adachi),2012-12-01,14:01～15:00,0.0612,0.0544,0.0579,
足立 (Adachi),2012-12-01,13:01～14:00,0.0710,0.0561,0.0634,
足立 (Adachi),2012-12-01,12:01～13:00,0.0719,0.0558,0.0673,
足立 (Adachi),2012-12-01,11:01～12:00,0.0599,0.0545,0.0569,
足立 (Adachi),2012-12-01,10:01～11:00,0.0602,0.0530,0.0565,
足立 (Adachi),2012-12-01,09:01～10:00,0.0591,0.0521,0.0555,
足立 (Adachi),2012-12-01,08:01～09:00,0.0601,0.0549,0.0573,
足立 (Adachi),2012-12-01,07:01～08:00,0.0591,0.0536,0.0563,
足立 (Adachi),2012-12-01,06:01～07:00,0.0600,0.0526,0.0568,
足立 (Adachi),2012-12-01,05:01～06:00,0.0617,0.0548,0.0580,
足立 (Adachi),2012-12-01,04:01～05:00,0.0613,0.0536,0.0579,
足立 (Adachi),2012-12-01,03:01～04:00,0.0602,0.0534,0.0572,
足立 (Adachi),2012-12-01,02:01～03:00,0.0604,0.0532,0.0575,
足立 (Adachi),2012-12-01,01:01～02:00,0.0610,0.0541,0.0581,
足立 (Adachi),2012-12-01,00:01～01:00,0.0609,0.0539,0.0577,
足立 (Adachi),2012-11-30,23:01～24:00,0.0606,0.0527,0.0569,
足立 (Adachi),2012-11-30,22:01～23:00,0.0600,0.0529,0.0566,
足立 (Adachi),2012-11-30,21:01～22:00,0.0606,0.0541,0.0571,
足立 (Adachi),2012-11-30,20:01～21:00,0.0617,0.0513,0.0569,
足立 (Adachi),2012-11-30,19:01～20:00,0.0605,0.0522,0.0570,
足立 (Adachi),2012-11-30,18:01～19:00,0.0604,0.0542,0.0573,
足立 (Adachi),2012-11-30,17:01～18:00,0.0608,0.0544,0.0576,
足立 (Adachi),2012-11-30,16:01～17:00,0.0604,0.0529,0.0569,
足立 (Adachi),2012-11-30,15:01～16:00,0.0597,0.0537,0.0570,
足立 (Adachi),2012-11-30,14:01～15:00,0.0612,0.0540,0.0571,
足立 (Adachi),2012-11-30,13:01～14:00,0.0600,0.0525,0.0568,
足立 (Adachi),2012-11-30,12:01～13:00,0.0607,0.0534,0.0570,
足立 (Adachi),2012-11-30,11:01～12:00,0.0618,0.0537,0.0571,
足立 (Adachi),2012-11-30,10:01～11:00,0.0607,0.0533,0.0568,
足立 (Adachi),2012-11-30,09:01～10:00,0.0589,0.0527,0.0565,
足立 (Adachi),2012-11-30,08:01～09:00,0.0597,0.0533,0.0565,
足立 (Adachi),2012-11-30,07:01～08:00,0.0609,0.0527,0.0566,
足立 (Adachi),2012-11-30,06:01～07:00,0.0618,0.0527,0.0564,
足立 (Adachi),2012-11-30,05:01～06:00,0.0617,0.0537,0.0571,
足立 (Adachi),2012-11-30,04:01～05:00,0.0610,0.0549,0.0575,
足立 (Adachi),2012-11-30,03:01～04:00,0.0617,0.0547,0.0577,
足立 (Adachi),2012-11-30,02:01～03:00,0.0613,0.0556,0.0580,
足立 (Adachi),2012-11-30,01:01～02:00,0.0626,0.0556,0.0586,
足立 (Adachi),2012-11-30,00:01～01:00,0.0668,0.0576,0.0614,
足立 (Adachi),2012-11-29,23:01～24:00,0.0740,0.0619,0.0666,
足立 (Adachi),2012-11-29,22:01～23:00,0.0755,0.0646,0.0704,
足立 (Adachi),2012-11-29,21:01～22:00,0.0692,0.0596,0.0639,
足立 (Adachi),2012-11-29,20:01～21:00,0.0644,0.0536,0.0593,
足立 (Adachi),2012-11-29,19:01～20:00,0.0623,0.0543,0.0585,
足立 (Adachi),2012-11-29,18:01～19:00,0.0629,0.0539,0.0581,
足立 (Adachi),2012-11-29,17:01～18:00,0.0613,0.0543,0.0577,
足立 (Adachi),2012-11-29,16:01～17:00,0.0610,0.0534,0.0571,
足立 (Adachi),2012-11-29,15:01～16:00,0.0611,0.0531,0.0572,
足立 (Adachi),2012-11-29,14:01～15:00,0.0606,0.0531,0.0574,
足立 (Adachi),2012-11-29,13:01～14:00,0.0615,0.0536,0.0576,
足立 (Adachi),2012-11-29,12:01～13:00,0.0607,0.0542,0.0574,
足立 (Adachi),2012-11-29,11:01～12:00,0.0615,0.0546,0.0576,
足立 (Adachi),2012-11-29,10:01～11:00,0.0612,0.0543,0.0579,
足立 (Adachi),2012-11-29,09:01～10:00,0.0609,0.0531,0.0576,
足立 (Adachi),2012-11-29,08:01～09:00,0.0623,0.0545,0.0585,
足立 (Adachi),2012-11-29,07:01～08:00,0.0616,0.0540,0.0577,
足立 (Adachi),2012-11-29,06:01～07:00,0.0603,0.0544,0.0568,
足立 (Adachi),2012-11-29,05:01～06:00,0.0624,0.0541,0.0577,
足立 (Adachi),2012-11-29,04:01～05:00,0.0621,0.0547,0.0577,
足立 (Adachi),2012-11-29,03:01～04:00,0.0604,0.0551,0.0578,
足立 (Adachi),2012-11-29,02:01～03:00,0.0608,0.0545,0.0573,
足立 (Adachi),2012-11-29,01:01～02:00,0.0609,0.0530,0.0570,
足立 (Adachi),2012-11-29,00:01～01:00,0.0618,0.0538,0.0571,
足立 (Adachi),2012-11-28,23:01～24:00,0.0600,0.0536,0.0566,
足立 (Adachi),2012-11-28,22:01～23:00,0.0612,0.0536,0.0568,
足立 (Adachi),2012-11-28,21:01～22:00,0.0605,0.0530,0.0568,
足立 (Adachi),2012-11-28,20:01～21:00,0.0607,0.0534,0.0573,
足立 (Adachi),2012-11-28,19:01～20:00,0.0599,0.0534,0.0566,
足立 (Adachi),2012-11-28,18:01～19:00,0.0599,0.0538,0.0568,
足立 (Adachi),2012-11-28,17:01～18:00,0.0606,0.0540,0.0568,
足立 (Adachi),2012-11-28,16:01～17:00,0.0609,0.0538,0.0578,
足立 (Adachi),2012-11-28,15:01～16:00,0.0637,0.0542,0.0594,
足立 (Adachi),2012-11-28,14:01～15:00,0.0634,0.0544,0.0587,
足立 (Adachi),2012-11-28,13:01～14:00,0.0622,0.0547,0.0578,
足立 (Adachi),2012-11-28,12:01～13:00,0.0614,0.0542,0.0574,
足立 (Adachi),2012-11-28,11:01～12:00,0.0613,0.0548,0.0583,
足立 (Adachi),2012-11-28,10:01～11:00,0.0627,0.0551,0.0589,
足立 (Adachi),2012-11-28,09:01～10:00,0.0625,0.0532,0.0569,
足立 (Adachi),2012-11-28,08:01～09:00,0.0602,0.0533,0.0570,
足立 (Adachi),2012-11-28,07:01～08:00,0.0595,0.0520,0.0564,
足立 (Adachi),2012-11-28,06:01～07:00,0.0595,0.0527,0.0560,
足立 (Adachi),2012-11-28,05:01～06:00,0.0617,0.0535,0.0568,
足立 (Adachi),2012-11-28,04:01～05:00,0.0605,0.0532,0.0566,
足立 (Adachi),2012-11-28,03:01～04:00,0.0600,0.0535,0.0561,
足立 (Adachi),2012-11-28,02:01～03:00,0.0595,0.0531,0.0564,
足立 (Adachi),2012-11-28,01:01～02:00,0.0598,0.0535,0.0568,
足立 (Adachi),2012-11-28,00:01～01:00,0.0596,0.0534,0.0566,
足立 (Adachi),2012-11-27,23:01～24:00,0.0600,0.0524,0.0567,
足立 (Adachi),2012-11-27,22:01～23:00,0.0601,0.0529,0.0567,
足立 (Adachi),2012-11-27,21:01～22:00,0.0605,0.0547,0.0570,
足立 (Adachi),2012-11-27,20:01～21:00,0.0611,0.0536,0.0567,
足立 (Adachi),2012-11-27,19:01～20:00,0.0614,0.0539,0.0568,
足立 (Adachi),2012-11-27,18:01～19:00,0.0610,0.0536,0.0571,
足立 (Adachi),2012-11-27,17:01～18:00,0.0593,0.0540,0.0568,
足立 (Adachi),2012-11-27,16:01～17:00,0.0593,0.0528,0.0568,
足立 (Adachi),2012-11-27,15:01～16:00,0.0606,0.0536,0.0572,
足立 (Adachi),2012-11-27,14:01～15:00,0.0617,0.0533,0.0574,
足立 (Adachi),2012-11-27,13:01～14:00,0.0611,0.0524,0.0569,
足立 (Adachi),2012-11-27,12:01～13:00,0.0599,0.0532,0.0571,
足立 (Adachi),2012-11-27,11:01～12:00,0.0613,0.0545,0.0578,
足立 (Adachi),2012-11-27,10:01～11:00,0.0603,0.0531,0.0574,
足立 (Adachi),2012-11-27,09:01～10:00,0.0601,0.0537,0.0566,
足立 (Adachi),2012-11-27,08:01～09:00,0.0586,0.0524,0.0556,
足立 (Adachi),2012-11-27,07:01～08:00,0.0574,0.0513,0.0548,
足立 (Adachi),2012-11-27,06:01～07:00,0.0583,0.0500,0.0548,
足立 (Adachi),2012-11-27,05:01～06:00,0.0593,0.0523,0.0558,
足立 (Adachi),2012-11-27,04:01～05:00,0.0594,0.0525,0.0561,
足立 (Adachi),2012-11-27,03:01～04:00,0.0594,0.0518,0.0555,
足立 (Adachi),2012-11-27,02:01～03:00,0.0585,0.0531,0.0557,
足立 (Adachi),2012-11-27,01:01～02:00,0.0598,0.0523,0.0559,
足立 (Adachi),2012-11-27,00:01～01:00,0.0588,0.0532,0.0556,
足立 (Adachi),2012-11-26,23:01～24:00,0.0596,0.0526,0.0560,
足立 (Adachi),2012-11-26,22:01～23:00,0.0594,0.0536,0.0562,
足立 (Adachi),2012-11-26,21:01～22:00,0.0592,0.0535,0.0565,
足立 (Adachi),2012-11-26,20:01～21:00,0.0607,0.0526,0.0565,
足立 (Adachi),2012-11-26,19:01～20:00,0.0632,0.0546,0.0586,
足立 (Adachi),2012-11-26,18:01～19:00,0.0734,0.0572,0.0646,
足立 (Adachi),2012-11-26,17:01～18:00,0.0832,0.0703,0.0753,
足立 (Adachi),2012-11-26,16:01～17:00,0.0782,0.0641,0.0704,
足立 (Adachi),2012-11-26,15:01～16:00,0.0701,0.0609,0.0651,
足立 (Adachi),2012-11-26,14:01～15:00,0.0739,0.0648,0.0689,
足立 (Adachi),2012-11-26,13:01～14:00,0.0729,0.0598,0.0653,
足立 (Adachi),2012-11-26,12:01～13:00,0.0665,0.0596,0.0629,
足立 (Adachi),2012-11-26,11:01～12:00,0.0673,0.0562,0.0605,
足立 (Adachi),2012-11-26,10:01～11:00,0.0616,0.0552,0.0586,
足立 (Adachi),2012-11-26,09:01～10:00,0.0618,0.0544,0.0580,
足立 (Adachi),2012-11-26,08:01～09:00,0.0611,0.0531,0.0566,
足立 (Adachi),2012-11-26,07:01～08:00,0.0597,0.0531,0.0558,
足立 (Adachi),2012-11-26,06:01～07:00,0.0600,0.0538,0.0568,
足立 (Adachi),2012-11-26,05:01～06:00,0.0606,0.0537,0.0571,
足立 (Adachi),2012-11-26,04:01～05:00,0.0616,0.0541,0.0573,
足立 (Adachi),2012-11-26,03:01～04:00,0.0606,0.0538,0.0572,
足立 (Adachi),2012-11-26,02:01～03:00,0.0603,0.0547,0.0573,
足立 (Adachi),2012-11-26,01:01～02:00,0.0593,0.0532,0.0573,
足立 (Adachi),2012-11-26,00:01～01:00,0.0598,0.0534,0.0571,
